[[{"header":{"parameterUnit":"m.s-1","parameterCategory":1,"la1":30.2991,"la2":30.254,"lo1":-89.0895,"lo2":-89.0444,"dy":0.0017,"dx":0.0017,"nx":28,"ny":28,"refTime":"2025-06-20T03:00:00:Z","depth":0,"parameterNumber":2,"parameterNumberName":"U-component_of_WINDS"},"data":[0,0,0,0,0,0,0,0,0,0,0,0,0,0,0,0,0,0,0,0,0,0,0,0,0,0,0,0,0,0,0,0,0,0,0,0,0,0,0,0,0,0,0,0,0,0,0,0,0,0,0,0,0,0,0,0,0,0,0.611,0.6111,0,0.619,0.6191,0.6191,0.6221,0.6221,0.6221,0.6221,0.63,0.6303,0.6305,0,0,0,0,0,0,0,0,0,0,0,0,0,0.5982,0.5984,0.611,0.6111,0.6112,0.6189,0.6191,0.6192,0.6221,0.6221,0.6221,0.622,0.63,0.6302,0.6305,0,0,0,0,0,0,0,0,0,0,0,0,0,0.6047,0.5985,0.611,0.6136,0.614,0.6189,0.6191,0.6192,0.6221,0.6221,0.6221,0.622,0.6299,0.6302,0.6306,0.6335,0,0,0.6316,0.6318,0,0,0,0,0,0,0,0,0.6044,0.6052,0.6132,0.6135,0.6138,0.6195,0.6175,0.624,0.6221,0.619,0.6221,0.622,0.6266,0.6272,0.6287,0.6338,0.6342,0.6317,0.6319,0.632,0.6321,0,0,0,0,0,0,0,0.6039,0.6049,0.6142,0.6133,0.6137,0.6144,0.6152,0.6187,0.6229,0.6193,0.6195,0.6204,0.6267,0.6284,0.629,0.6343,0.6317,0.632,0.6322,0.6323,0.642,0.6421,0,0,0,0,0,0,0.603,0.6045,0.6139,0.6144,0.6089,0.6146,0.6156,0.6177,0.6229,0.6236,0.6205,0.6205,0.6278,0.6285,0.6292,0.6329,0.632,0.6324,0.6326,0.642,0.642,0.6421,0,0,0,0,0,0,0.6028,0.6039,0.6136,0.6095,0.6108,0.6149,0.6172,0.6179,0.6196,0.6238,0.6245,0.6214,0.6278,0.6288,0.6324,0.6332,0.6325,0.6328,0.6419,0.642,0.6421,0.6403,0,0,0,0,0,0,0.6024,0.6037,0.6049,0.6095,0.611,0.6166,0.6173,0.6181,0.6202,0.6204,0.6248,0.6255,0.6279,0.6318,0.6327,0.6337,0.6331,0.6419,0.642,0.642,0.6403,0.6403,0.6403,0,0,0,0,0,0.6019,0.6041,0.605,0.6061,0.6126,0.6167,0.6175,0.6202,0.6202,0.6214,0.6241,0.6254,0.633,0.6322,0.6332,0.6343,0.6418,0.6419,0.642,0.6403,0.6403,0.6403,0,0,0,0,0,0,0.5995,0.6048,0.6058,0.6095,0.6126,0.6172,0.6188,0.6201,0.6233,0.6233,0.6264,0.6274,0.6308,0.6329,0.6319,0.6373,0.6375,0.6378,0.6358,0.6358,0.6358,0.6353,0.6334,0,0,0,0,0,0.5994,0.6023,0.6068,0.6096,0.6112,0.6147,0.6166,0.6184,0.6217,0.623,0.6259,0.6291,0.6321,0.6341,0.6372,0.6406,0.6416,0.6419,0.6419,0.6418,0.6421,0.644,0.6441,0.6424,0.6424,0.6424,0,0,0.5992,0.6025,0.6041,0.6092,0.6119,0.6147,0.6158,0.6188,0.621,0.6234,0.627,0.6293,0.633,0.6365,0.6382,0.6384,0.6427,0.642,0.6419,0.6422,0.6441,0.6442,0.6444,0.6425,0.6425,0.6425,0,0,0.6004,0.6032,0.6058,0.6084,0.6124,0.6147,0.6153,0.6197,0.6213,0.6249,0.6268,0.6294,0.6347,0.6372,0.6392,0.6412,0.6425,0.6421,0.6421,0.6439,0.644,0.6442,0.6448,0.6451,0.6423,0.6423,0.6423,0,0.5997,0.6042,0.607,0.61,0.6121,0.6145,0.6172,0.6195,0.6243,0.6257,0.6258,0.6324,0.6351,0.6392,0.6397,0.6412,0.642,0.6416,0.6438,0.644,0.6441,0.6448,0.645,0.6423,0.6423,0.6423,0.6423,0,0.603,0.6061,0.6078,0.6124,0.6147,0.6175,0.6207,0.6227,0.6242,0.6265,0.6301,0.6334,0.6372,0.6383,0.6398,0.6425,0.6425,0.6432,0.6434,0.6442,0.6448,0.6451,0.6422,0.6422,0.6422,0.6422,0,0,0.6029,0.609,0.6096,0.6116,0.6161,0.6185,0.6214,0.6251,0.6267,0.6298,0.6323,0.6366,0.6373,0.6395,0.6413,0.6429,0.6442,0.6434,0.6435,0.6434,0.6474,0.6468,0.6471,0.6451,0.6451,0.6452,0.647,0,0.6047,0.61,0.6126,0.6167,0.6195,0.6218,0.6242,0.6272,0.6294,0.6321,0.6345,0.6375,0.6381,0.6395,0.6411,0.6437,0.645,0.6436,0.6473,0.6474,0.6463,0.6474,0.6469,0.6485,0.6473,0.6474,0.6474,0,0.6074,0.6106,0.615,0.6191,0.6204,0.6226,0.6261,0.6287,0.632,0.6335,0.636,0.6377,0.6407,0.6407,0.6449,0.6438,0.6455,0.6469,0.6471,0.6475,0.6474,0.6479,0.6491,0.6493,0.6479,0.6478,0.6478,0,0.6068,0.6122,0.6155,0.6172,0.6221,0.6236,0.6256,0.629,0.631,0.6341,0.6354,0.6388,0.6406,0.6432,0.6458,0.6455,0.6496,0.6498,0.6509,0.6508,0.6516,0.6515,0.6531,0.6527,0.6527,0.6527,0.6527,0,0.6085,0.6111,0.6153,0.6173,0.6203,0.6232,0.626,0.6282,0.6312,0.6336,0.6358,0.638,0.6413,0.6439,0.646,0.6491,0.6499,0.6511,0.6516,0.6509,0.6507,0.652,0.652,0.6528,0.6527,0.6527,0.6527,0,0.6083,0.6113,0.615,0.6193,0.6205,0.6224,0.6261,0.6281,0.6304,0.6334,0.6343,0.6378,0.641,0.6439,0.6481,0.6495,0.6526,0.6533,0.6515,0.6518,0.6526,0.6525,0.655,0.6555,0.6548,0.6548,0.6548,0,0.6092,0.6112,0.6158,0.6176,0.6196,0.6225,0.6246,0.6275,0.6296,0.6336,0.6351,0.6384,0.6413,0.6462,0.6492,0.6524,0.6531,0.6538,0.6536,0.6528,0.6531,0.6529,0.6531,0.6537,0.6537,0.6537,0.6537,0,0.6103,0.6117,0.6147,0.6181,0.6205,0.6234,0.6263,0.6276,0.6311,0.6332,0.6366,0.6388,0.6431,0.6463,0.6499,0.652,0.6534,0.6537,0.6541,0.6534,0.6523,0.6529,0.6514,0.6537,0.6537,0.6537,0.6537,0.6537,0.6107,0.6126,0.6161,0.6193,0.6218,0.6244,0.6265,0.629,0.6319,0.6356,0.6372,0.6405,0.6437,0.6486,0.6507,0.6533,0.6536,0.6542,0.6543,0.6544,0.6543,0.6519,0.654,0.654,0.654,0.654,0.654,0,0.6119,0.6143,0.6172,0.6212,0.6237,0.6249,0.6281,0.6301,0.633,0.636,0.6387,0.6425,0.6456,0.6488,0.6521,0.6536,0.6543,0.6543,0.6543,0.6547,0.6539,0.6532,0.6537,0.6537,0.6537,0.6537,0.6537,0.6537,0.6129,0.6162,0.6179,0.6224,0.6247,0.628,0.6298,0.6322,0.6346,0.6387,0.6413,0.6434,0.6464,0.6499,0.6528,0.6537,0.6548,0.6546,0.6556,0.6548,0.6548,0.6548,0.6541,0.6548,0.6548,0.6562,0.6563,0.6563]},{"header":{"parameterUnit":"m.s-1","parameterCategory":1,"la1":30.2991,"la2":30.254,"lo1":-89.0895,"lo2":-89.0444,"dy":0.0017,"dx":0.0017,"nx":28,"ny":28,"refTime":"2025-06-20T03:00:00:Z","depth":0,"parameterNumber":3,"parameterNumberName":"V-component_of_WINDS"},"data":[0,0,0,0,0,0,0,0,0,0,0,0,0,0,0,0,0,0,0,0,0,0,0,0,0,0,0,0,0,0,0,0,0,0,0,0,0,0,0,0,0,0,0,0,0,0,0,0,0,0,0,0,0,0,0,0,0,0,4.3445,4.3444,0,4.3379,4.3379,4.3378,4.3298,4.3296,4.3295,4.3294,4.3224,4.3223,4.3222,0,0,0,0,0,0,0,0,0,0,0,0,0,4.3498,4.3497,4.3445,4.3444,4.3443,4.338,4.3379,4.3378,4.3298,4.3296,4.3295,4.3293,4.3224,4.3223,4.3222,0,0,0,0,0,0,0,0,0,0,0,0,0,4.3458,4.3497,4.3445,4.3396,4.3391,4.338,4.3379,4.3377,4.3298,4.3296,4.3294,4.3293,4.3224,4.3223,4.3222,4.3253,0,0,4.3219,4.3219,0,0,0,0,0,0,0,0,4.346,4.3456,4.3404,4.3399,4.3393,4.3345,4.3371,4.3336,4.3299,4.3333,4.3294,4.3292,4.3265,4.3261,4.3253,4.325,4.3247,4.3219,4.3218,4.3218,4.3218,0,0,0,0,0,0,0,4.3463,4.3458,4.3419,4.3403,4.3397,4.3376,4.3368,4.3364,4.3311,4.333,4.3324,4.3318,4.3262,4.3254,4.325,4.3246,4.3219,4.3218,4.3217,4.3217,4.3265,4.3267,0,0,0,0,0,0,4.3474,4.3461,4.3421,4.3417,4.3423,4.3377,4.3368,4.3362,4.331,4.3301,4.3319,4.3314,4.3257,4.3252,4.3248,4.328,4.3218,4.3217,4.3216,4.3263,4.3265,4.3267,0,0,0,0,0,0,4.3475,4.3471,4.3424,4.3437,4.343,4.3378,4.3372,4.3362,4.3354,4.3302,4.3292,4.3321,4.3255,4.3249,4.3253,4.3276,4.3216,4.3215,4.3261,4.3264,4.3266,4.3345,0,0,0,0,0,0,4.3477,4.3472,4.3484,4.3438,4.3429,4.3431,4.3374,4.3362,4.3352,4.3345,4.3301,4.3292,4.3253,4.3255,4.3252,4.3274,4.3215,4.3258,4.3262,4.3265,4.334,4.3351,4.3359,0,0,0,0,0,4.3479,4.3508,4.3485,4.348,4.3443,4.3432,4.3427,4.3383,4.3355,4.3366,4.3333,4.3293,4.3275,4.3256,4.3252,4.3274,4.3257,4.3261,4.3265,4.3336,4.3349,4.3359,0,0,0,0,0,0,4.3556,4.3501,4.3475,4.349,4.3467,4.3419,4.3431,4.3397,4.3381,4.3374,4.3319,4.331,4.332,4.3297,4.3277,4.3301,4.326,4.3263,4.3315,4.3327,4.3336,4.334,4.3214,0,0,0,0,0,4.3576,4.3572,4.3524,4.3542,4.3531,4.3484,4.3477,4.3445,4.3418,4.3408,4.3375,4.3349,4.3338,4.3331,4.3317,4.3337,4.3326,4.335,4.336,4.3368,4.3371,4.3379,4.3389,4.3281,4.3281,4.3281,0,0,4.3614,4.3584,4.3585,4.3556,4.3534,4.3531,4.3476,4.3475,4.3471,4.3407,4.3408,4.3384,4.3352,4.3363,4.3367,4.3345,4.3399,4.3373,4.338,4.3379,4.3385,4.3395,4.3404,4.3284,4.3284,4.3283,0,0,4.3683,4.366,4.3672,4.3652,4.362,4.3588,4.3591,4.3549,4.353,4.3531,4.3483,4.3478,4.3459,4.3438,4.3425,4.3487,4.3449,4.3484,4.3533,4.3541,4.355,4.3557,4.3578,4.3586,4.3487,4.3488,4.3488,0,4.3735,4.3729,4.3683,4.3685,4.3673,4.3617,4.3628,4.361,4.3575,4.3568,4.3544,4.352,4.3494,4.35,4.3515,4.3507,4.3507,4.3488,4.3552,4.3559,4.3565,4.3585,4.3593,4.3492,4.3491,4.3491,4.3491,0,4.3794,4.3791,4.3804,4.3773,4.3763,4.377,4.3724,4.372,4.3689,4.366,4.3661,4.3628,4.3607,4.3606,4.3576,4.3608,4.3595,4.3563,4.352,4.3581,4.3598,4.3605,4.3498,4.3497,4.3495,4.3494,0,0,4.3908,4.3852,4.3858,4.3843,4.3804,4.38,4.3804,4.3784,4.3781,4.3759,4.376,4.3746,4.3716,4.3702,4.3668,4.3676,4.3726,4.3642,4.3641,4.3658,4.3758,4.3782,4.3791,4.3702,4.3703,4.3704,4.376,0,4.3969,4.3974,4.3932,4.3948,4.3944,4.389,4.3893,4.3869,4.3842,4.3834,4.3803,4.3794,4.3756,4.3746,4.3752,4.3719,4.3745,4.3714,4.3701,4.3701,4.371,4.3801,4.3825,4.388,4.3767,4.3768,4.3769,0,4.404,4.4023,4.4039,4.3999,4.3996,4.4,4.3978,4.3972,4.3943,4.3923,4.3907,4.3869,4.3869,4.383,4.3829,4.3809,4.3801,4.3784,4.3785,4.3781,4.3738,4.3798,4.3897,4.3905,4.3779,4.3779,4.3778,0,4.4121,4.4102,4.4109,4.4098,4.4052,4.4056,4.4037,4.4006,4.3997,4.3978,4.3972,4.3953,4.3942,4.3928,4.3885,4.3861,4.3889,4.3846,4.3871,4.3872,4.3878,4.3878,4.3976,4.3875,4.3875,4.3875,4.3875,0,4.4192,4.4204,4.4144,4.4148,4.4159,4.4112,4.4123,4.4099,4.4073,4.407,4.4022,4.4021,4.3966,4.3958,4.3924,4.3928,4.3924,4.3906,4.3897,4.391,4.3912,4.3903,4.3898,4.3877,4.3877,4.3876,4.3876,0,4.4284,4.4245,4.4248,4.4205,4.4195,4.4204,4.4167,4.4168,4.4139,4.4136,4.4133,4.4086,4.4074,4.4031,4.4008,4.3985,4.3999,4.3982,4.4009,4.4003,4.403,4.4027,4.4124,4.4134,4.4029,4.403,4.4031,0,4.4331,4.4339,4.4297,4.4293,4.4276,4.4269,4.426,4.4214,4.4206,4.4174,4.4179,4.4164,4.4149,4.4132,4.4095,4.4077,4.4059,4.4094,4.4056,4.4068,4.4058,4.4058,4.4058,4.4102,4.4103,4.4105,4.4105,0,4.442,4.44,4.4389,4.4372,4.4363,4.4346,4.4327,4.4326,4.4274,4.4267,4.4255,4.4244,4.4221,4.4206,4.4183,4.4161,4.4124,4.4118,4.4123,4.4135,4.415,4.4141,4.403,4.4116,4.4115,4.4114,4.4113,4.4113,4.449,4.4494,4.4465,4.4454,4.4436,4.4419,4.4418,4.4389,4.4378,4.4357,4.433,4.4322,4.4292,4.4257,4.4239,4.423,4.421,4.4217,4.4218,4.422,4.4226,4.4153,4.4226,4.4225,4.4225,4.4225,4.4225,0,4.4575,4.4554,4.4545,4.452,4.4512,4.448,4.4457,4.4451,4.4445,4.4421,4.4408,4.4394,4.4379,4.4342,4.4323,4.4323,4.4306,4.432,4.4319,4.4314,4.4246,4.4243,4.4334,4.4334,4.4334,4.4334,4.4334,4.4334,4.4618,4.4623,4.46,4.4595,4.4574,4.4566,4.4556,4.454,4.4521,4.4508,4.4496,4.4472,4.4442,4.4421,4.4406,4.4395,4.439,4.4409,4.4393,4.433,4.4319,4.4309,4.4306,4.4409,4.4409,4.4462,4.4462,4.4463]}]]